Biloxi, MS

12:16 PM CST on February 07, 2016 (GMT -0600)
Keesler Air Force Base

Weather History for KBIX - August, 2013

Change the Weather History Date:

Saturday, August 10, 2013

  Actual Average Record
Temperature  
Mean Temperature 84 °F -  
Max Temperature 90 °F 90 °F 98 °F (1962)
Min Temperature 77 °F 75 °F 67 °F (1965)
Cooling Degree Days 19    
Growing Degree Days 34 (Base 50)    
Moisture  
Dew Point 75 °F    
Average Humidity 74    
Maximum Humidity 92    
Minimum Humidity 59    
Precipitation  
Precipitation 0.00 in - - ()
Sea Level Pressure  
Sea Level Pressure 30.05 in    
Wind  
Wind Speed 7 mph (SE)    
Max Wind Speed 12 mph    
Max Gust Speed 17 mph    
Visibility 10 miles    
Events Rain , Thunderstorm    
Averages and records for this station are not official NWS values.
T = Trace of Precipitation, MM = Missing Value Source: NWS Daily Summary

Daily Weather History Graph

Daily Weather History Graph

Search for Another Location

Airport or City:

Trip Planner

Search our weather history database for the weather conditions in past years. The results will help you decide how hot, cold, wet, or windy it might be!

Date:

Astronomy

Aug. 10, 2013 Rise Set
Actual Time 6:19 AM CDT 7:41 PM CDT
Civil Twilight 5:54 AM CDT 8:07 PM CDT
Nautical Twilight 5:23 AM CDT 8:37 PM CDT
Astronomical Twilight 4:51 AM CDT 9:09 PM CDT
Moon 9:45 AM CDT (8/10) 9:45 PM CDT (8/10)
Length of Visible Light 14h 13m
Length of Day
13h 22m
Waxing Crescent, 14% of the Moon is Illuminated
Aug 10
Waxing Crescent
Aug 14
First Quarter
Aug 20
Full
Aug 28
Last Quarter
Sep 5
New

Hourly Weather History & Observations

Time (CDT) Temp. Heat Index Dew Point Humidity Pressure Visibility Wind Dir Wind Speed Gust Speed Precip Events Conditions
12:58 AM 81.5 °F 88.0 °F 75.4 °F 82% 30.03 in 10.0 mi ESE 4.6 mph - N/A   Partly Cloudy
1:23 AM 80.6 °F 86.2 °F 75.2 °F 84% 30.02 in 10.0 mi SSE 6.9 mph - N/A   Mostly Cloudy
1:43 AM 82.4 °F 89.5 °F 75.2 °F 79% 30.02 in 10.0 mi SSE 9.2 mph - N/A   Mostly Cloudy
1:58 AM 83.7 °F 90.7 °F 74.3 °F 73% 30.02 in 10.0 mi SSE 8.1 mph - N/A   Scattered Clouds
2:58 AM 84.0 °F 91.2 °F 74.3 °F 72% 30.02 in 10.0 mi SE 8.1 mph - N/A   Clear
3:58 AM 83.8 °F 90.8 °F 73.8 °F 72% 30.03 in 10.0 mi SSE 9.2 mph - N/A   Partly Cloudy
4:35 AM 80.6 °F 86.2 °F 75.2 °F 84% 30.02 in 10.0 mi Variable 6.9 mph - N/A Rain Light Rain
4:49 AM 80.6 °F 86.2 °F 75.2 °F 84% 30.02 in 10.0 mi Variable 2.3 mph - N/A   Partly Cloudy
4:58 AM 80.6 °F 86.2 °F 75.4 °F 84% 30.03 in 10.0 mi SSE 8.1 mph - 0.00 in   Partly Cloudy
5:33 AM 78.8 °F - 75.2 °F 89% 30.03 in 10.0 mi ENE 6.9 mph - N/A   Mostly Cloudy
5:38 AM 78.8 °F - 75.2 °F 89% 30.03 in 10.0 mi NE 5.8 mph - N/A   Mostly Cloudy
5:58 AM 78.4 °F - 75.9 °F 92% 30.04 in 10.0 mi ENE 5.8 mph - N/A   Partly Cloudy
6:58 AM 77.7 °F - 75.2 °F 92% 30.05 in 10.0 mi NE 4.6 mph - N/A   Clear
7:58 AM 81.7 °F 89.2 °F 76.6 °F 85% 30.06 in 10.0 mi East 2.3 mph - N/A   Clear
8:58 AM 83.3 °F 92.1 °F 76.5 °F 80% 30.07 in 10.0 mi ENE 5.8 mph - N/A   Clear
9:58 AM 86.7 °F 97.3 °F 76.3 °F 71% 30.08 in 10.0 mi East 3.5 mph - N/A   Clear
10:58 AM 88.5 °F 98.8 °F 75.2 °F 65% 30.10 in 10.0 mi SSE 8.1 mph - N/A   Partly Cloudy
11:58 AM 89.2 °F 99.5 °F 75.0 °F 63% 30.10 in 10.0 mi SSE 9.2 mph - N/A   Partly Cloudy
12:58 PM 89.4 °F 98.9 °F 74.5 °F 61% 30.08 in 10.0 mi SSE 8.1 mph - N/A   Partly Cloudy
1:58 PM 90.3 °F 101.0 °F 75.2 °F 61% 30.07 in 10.0 mi SSE 11.5 mph 17.3 mph N/A   Clear
2:22 PM 91.4 °F 102.5 °F 75.2 °F 59% 30.05 in 10.0 mi SSE 10.4 mph - N/A Thunderstorm Thunderstorm
2:52 PM 89.6 °F 99.8 °F 75.2 °F 62% 30.05 in 10.0 mi SSE 9.2 mph - N/A   Scattered Clouds
2:58 PM 90.0 °F 100.7 °F 75.2 °F 62% 30.06 in 10.0 mi SSE 10.4 mph - N/A   Partly Cloudy
3:58 PM 87.6 °F 96.7 °F 74.7 °F 65% 30.05 in 10.0 mi SSE 10.4 mph - N/A Thunderstorm Clear
4:20 PM 87.8 °F 97.6 °F 75.2 °F 66% 30.05 in 10.0 mi South 10.4 mph - N/A Thunderstorm Thunderstorm
4:35 PM 86.0 °F 95.1 °F 75.2 °F 70% 30.05 in 10.0 mi SSE 10.4 mph - N/A Thunderstorm Clear
4:58 PM 85.8 °F 93.4 °F 73.9 °F 67% 30.05 in 10.0 mi Variable 6.9 mph - N/A   Clear
5:58 PM 85.3 °F 92.2 °F 73.4 °F 67% 30.04 in 10.0 mi Variable 6.9 mph - N/A   Clear
6:58 PM 84.2 °F 91.2 °F 73.9 °F 71% 30.06 in 10.0 mi South 5.8 mph - N/A   Clear
7:58 PM 83.7 °F 88.9 °F 71.8 °F 67% 30.07 in 10.0 mi SE 5.8 mph - N/A   Clear
8:58 PM 83.8 °F 90.4 °F 73.4 °F 71% 30.08 in 10.0 mi South 8.1 mph - N/A   Partly Cloudy
9:58 PM 83.5 °F 90.6 °F 74.3 °F 74% 30.09 in 10.0 mi SSE 5.8 mph - N/A   Clear
10:58 PM 83.5 °F 90.6 °F 74.3 °F 74% 30.09 in 10.0 mi South 8.1 mph - N/A   Clear
11:53 PM 84.2 °F 92.3 °F 75.2 °F 74% 30.07 in 10.0 mi South 8.1 mph - N/A   Mostly Cloudy
11:58 PM 83.5 °F 91.2 °F 75.0 °F 76% 30.08 in 10.0 mi South 5.8 mph - N/A   Scattered Clouds